This demonstration page uses our WeatherBlox Daily Observations layout. Learn more.

Left ArrowRight Arrow

38.88101, -77.10428

Hourly Observations for June 14, 2021

Temp ( °F °C ) Dew Point ( °F °C ) Humidity (%) Winds ( mph kmh ) Pressure ( in mb ) Visibility ( mi km ) Precip ( " mm )
12:52 am 00:52 Cloudy 72 22.2 63 17.2 73 73 SSE 14 22 29.86 1011 10 16 N/A
1:52 am 01:52 Mostly Cloudy 71 21.7 62 16.7 73 73 SSE 8 13 29.86 1011 10 16 N/A
2:52 am 02:52 Mostly Cloudy 70 21.1 61 16.1 73 73 SSE 7 11 29.87 1012 10 16 N/A
3:52 am 03:52 Mostly Cloudy 69 20.6 61 16.1 76 76 SSE 8 13 29.86 1011 10 16 N/A
4:52 am 04:52 Mostly Cloudy 69 20.6 61 16.1 76 76 SSW 7 11 29.86 1011 10 16 N/A
5:52 am 05:52 Partly Cloudy 68 20 60 15.6 76 76 SSW 7 11 29.86 1011 10 16 N/A
6:52 am 06:52 Mostly Cloudy 69 20.6 60 15.6 73 73 S 6 9 29.86 1011 10 16 N/A
7:52 am 07:52 Partly Cloudy 71 21.7 62 16.7 73 73 S 12 19 29.84 1011 10 16 N/A
8:52 am 08:52 Mostly Sunny 74 23.3 63 17.2 69 69 SSW 12 19 29.85 1011 10 16 N/A
9:52 am 09:52 Partly Cloudy 76 24.4 65 18.3 69 69 SSW 8 13 29.85 1011 10 16 N/A
10:52 am 10:52 Mostly Cloudy 79 26.1 66 18.9 65 65 VRB 3 6 29.85 1011 10 16 N/A
11:52 am 11:52 Partly Cloudy 80 26.7 68 20 67 67 SSE 6 9 29.85 1011 10 16 N/A
12:52 pm 12:52 Partly Cloudy 84 28.9 66 18.9 55 55 S 5 7 29.83 1010 10 16 N/A
1:52 pm 13:52 Partly Cloudy 86 30 66 18.9 51 51 WSW 7 11 29.80 1009 10 16 N/A
2:52 pm 14:52 Partly Cloudy 87 30.6 65 18.3 48 48 SSW 6 9 29.78 1009 10 16 N/A
3:52 pm 15:52 Mostly Cloudy 88 31.1 65 18.3 46 46 undefined N/A 29.76 1008 10 16 N/A
4:52 pm 16:52 Mostly Cloudy 85 29.4 66 18.9 53 53 S 8 13 29.74 1007 10 16 N/A
5:52 pm 17:52 Mostly Cloudy 88 31.1 65 18.3 46 46 VRB 7 11 29.74 1007 10 16 N/A
6:52 pm 18:52 Partly Cloudy 84 28.9 68 20 59 59 S 9 15 29.73 1007 10 16 N/A
7:52 pm 19:52 Partly Cloudy 82 27.8 68 20 63 63 S 12 19 29.72 1007 10 16 N/A
8:52 pm 20:52 Mostly Cloudy 80 26.7 68 20 67 67 S 9 15 29.73 1007 10 16 N/A
9:52 pm 21:52 Mostly Cloudy 79 26.1 69 20.6 72 72 S 9 15 29.72 1007 10 16 N/A
10:32 pm 22:32 Mostly Cloudy with Thunderstorms 79 26.1 68 20 69 69 S 10 17 29.74 1007 10 16 N/A
10:39 pm 22:39 Windy with Storms Likely 79 26.1 67 19.4 67 67 NW 22 35 29.80 1009 7 11 0.00 0.00
10:41 pm 22:41 Cloudy with Strong Thunderstorms 76 24.4 66 18.9 72 72 NNW 31 50 29.81 1009 3 5 0.00 0.00
10:44 pm 22:44 Cloudy with Strong Thunderstorms 72 22.2 64 17.8 76 76 NNW 26 43 29.80 1009 1 2 0.05 1.27
10:46 pm 22:46 Cloudy with Strong Thunderstorms 70 21 64 18 83 83 NNW 25 41 29.80 1009 1 1 0.12 3.05
10:48 pm 22:48 Cloudy with Strong Thunderstorms 70 21 64 18 83 83 NNW 23 37 29.79 1009 1 2 0.23 5.84
10:52 pm 22:52 Cloudy with Thunderstorms 68 20 64 17.8 87 87 N 20 31 29.78 1008 3 5 0.29 7.37
10:54 pm 22:54 Cloudy with Thunderstorms 68 20 64 17.8 87 87 N 18 30 29.78 1008 3 5 0.00 0.00
11:06 pm 23:06 Cloudy with Strong Thunderstorms 68 20 64 17.8 87 87 NNW 15 24 29.81 1009 2 3 0.03 0.76
11:13 pm 23:13 Cloudy with Strong Thunderstorms 67 19.4 64 17.8 91 91 N 15 24 29.80 1009 1 1 0.18 4.57
11:14 pm 23:14 Cloudy with Strong Thunderstorms 67 19.4 64 17.8 91 91 N 17 28 29.80 1009 1 1 0.21 5.33
11:19 pm 23:19 Cloudy with Strong Thunderstorms 67 19.4 64 17.8 91 91 NW 17 28 29.82 1010 2 2 0.54 13.72
11:52 pm 23:52 Cloudy with Strong Thunderstorms 67 19.4 65 18.3 93 93 NE 10 17 29.78 1009 2 2 1.46 37.08
11:57 pm 23:57 Cloudy with Thunderstorms 68 20 65 18.3 90 90 ENE 7 11 29.80 1009 8 13 0.01 0.25

Powered by AerisWeather